Year,Month,Day,Hour,Minute,Value (Times are PST for insolation in W/m^2)
2008,12,25,00,00,0.00
2008,12,25,00,01,0.00
2008,12,25,00,02,0.00
2008,12,25,00,03,0.00
2008,12,25,00,04,0.00
2008,12,25,00,05,0.00
2008,12,25,00,06,0.00
2008,12,25,00,07,0.00
2008,12,25,00,08,0.00
2008,12,25,00,09,0.00
2008,12,25,00,10,0.00
2008,12,25,00,11,0.00
2008,12,25,00,12,0.00
2008,12,25,00,13,0.00
2008,12,25,00,14,0.00
2008,12,25,00,15,0.00
2008,12,25,00,16,0.00
2008,12,25,00,17,0.00
2008,12,25,00,18,0.00
2008,12,25,00,19,0.00
2008,12,25,00,20,0.00
2008,12,25,00,21,0.00
2008,12,25,00,22,0.00
2008,12,25,00,23,0.00
2008,12,25,00,24,0.00
2008,12,25,00,25,0.00
2008,12,25,00,26,0.00
2008,12,25,00,27,0.00
2008,12,25,00,28,0.00
2008,12,25,00,29,0.00
2008,12,25,00,30,0.00
2008,12,25,00,31,0.00
2008,12,25,00,32,0.00
2008,12,25,00,33,0.00
2008,12,25,00,34,0.00
2008,12,25,00,35,0.00
2008,12,25,00,36,0.00
2008,12,25,00,37,0.00
2008,12,25,00,38,0.00
2008,12,25,00,39,0.00
2008,12,25,00,40,0.00
2008,12,25,00,41,0.00
2008,12,25,00,42,0.00
2008,12,25,00,43,0.00
2008,12,25,00,44,0.00
2008,12,25,01,02,0.00
2008,12,25,01,03,0.00
2008,12,25,01,04,0.00
2008,12,25,01,05,0.00
2008,12,25,01,06,0.00
2008,12,25,01,07,0.00
2008,12,25,01,08,0.00
2008,12,25,01,09,0.00
2008,12,25,01,10,0.00
2008,12,25,01,11,0.00
2008,12,25,01,12,0.00
2008,12,25,01,13,0.00
2008,12,25,01,14,0.00
2008,12,25,01,15,0.00
2008,12,25,01,16,0.00
2008,12,25,01,17,0.00
2008,12,25,01,18,0.00
2008,12,25,01,19,0.00
2008,12,25,01,20,0.00
2008,12,25,01,21,0.00
2008,12,25,01,22,0.00
2008,12,25,01,23,0.00
2008,12,25,01,24,0.00
2008,12,25,01,25,0.00
2008,12,25,01,26,0.00
2008,12,25,01,27,0.00
2008,12,25,01,28,0.00
2008,12,25,01,29,0.00
2008,12,25,01,30,0.00
2008,12,25,01,31,0.00
2008,12,25,01,32,0.00
2008,12,25,01,33,0.00
2008,12,25,01,34,0.00
2008,12,25,01,35,0.00
2008,12,25,01,36,0.00
2008,12,25,01,37,0.00
2008,12,25,01,38,0.00
2008,12,25,01,39,0.00
2008,12,25,01,40,0.00
2008,12,25,01,41,0.00
2008,12,25,01,42,0.00
2008,12,25,01,43,0.00
2008,12,25,01,44,0.00
2008,12,25,01,45,0.00
2008,12,25,01,46,0.00
2008,12,25,01,47,0.00
2008,12,25,01,48,0.00
2008,12,25,01,49,0.00
2008,12,25,01,50,0.00
2008,12,25,01,51,0.00
2008,12,25,01,52,0.00
2008,12,25,01,53,0.00
2008,12,25,01,54,0.00
2008,12,25,01,55,0.00
2008,12,25,01,56,0.00
2008,12,25,01,57,0.00
2008,12,25,01,58,0.00
2008,12,25,01,59,0.00
2008,12,25,02,00,0.00
2008,12,25,02,01,0.00
2008,12,25,02,02,0.00
2008,12,25,02,03,0.00
2008,12,25,02,04,0.00
2008,12,25,02,05,0.00
2008,12,25,02,06,0.00
2008,12,25,02,07,0.00
2008,12,25,02,08,0.00
2008,12,25,02,09,0.00
2008,12,25,02,10,0.00
2008,12,25,02,11,0.00
2008,12,25,02,12,0.00
2008,12,25,02,13,0.00
2008,12,25,02,14,0.00
2008,12,25,02,15,0.00
2008,12,25,02,16,0.00
2008,12,25,02,17,0.00
2008,12,25,02,18,0.00
2008,12,25,02,19,0.00
2008,12,25,02,20,0.00
2008,12,25,02,21,0.00
2008,12,25,02,22,0.00
2008,12,25,02,23,0.00
2008,12,25,02,24,0.00
2008,12,25,02,25,0.00
2008,12,25,02,26,0.00
2008,12,25,02,27,0.00
2008,12,25,02,28,0.00
2008,12,25,02,29,0.00
2008,12,25,02,30,0.00
2008,12,25,02,31,0.00
2008,12,25,02,32,0.00
2008,12,25,02,33,0.00
2008,12,25,02,34,0.00
2008,12,25,02,35,0.00
2008,12,25,02,36,0.00
2008,12,25,02,37,0.00
2008,12,25,02,38,0.00
2008,12,25,02,39,0.00
2008,12,25,02,40,0.00
2008,12,25,02,41,0.00
2008,12,25,02,42,0.00
2008,12,25,02,43,0.00
2008,12,25,02,44,0.00
2008,12,25,02,45,0.00
2008,12,25,02,46,0.00
2008,12,25,02,47,0.00
2008,12,25,02,48,0.00
2008,12,25,02,49,0.00
2008,12,25,02,50,0.00
2008,12,25,02,51,0.00
2008,12,25,02,52,0.00
2008,12,25,02,53,0.00
2008,12,25,02,54,0.00
2008,12,25,02,55,0.00
2008,12,25,02,56,0.00
2008,12,25,02,57,0.00
2008,12,25,02,58,0.00
2008,12,25,02,59,0.00
2008,12,25,03,00,0.00
2008,12,25,03,01,0.00
2008,12,25,03,02,0.00
2008,12,25,03,03,0.00
2008,12,25,03,04,0.00
2008,12,25,03,05,0.00
2008,12,25,03,06,0.00
2008,12,25,03,07,0.00
2008,12,25,03,08,0.00
2008,12,25,03,09,0.00
2008,12,25,03,10,0.00
2008,12,25,03,11,0.00
2008,12,25,03,12,0.00
2008,12,25,03,13,0.00
2008,12,25,03,14,0.00
2008,12,25,03,15,0.00
2008,12,25,03,16,0.00
2008,12,25,03,17,0.00
2008,12,25,03,18,0.00
2008,12,25,03,19,0.00
2008,12,25,03,20,0.00
2008,12,25,03,21,0.00
2008,12,25,03,22,0.00
2008,12,25,03,23,0.00
2008,12,25,03,24,0.00
2008,12,25,03,25,0.00
2008,12,25,03,26,0.00
2008,12,25,03,27,0.00
2008,12,25,03,28,0.00
2008,12,25,03,29,0.00
2008,12,25,03,30,0.00
2008,12,25,03,31,0.00
2008,12,25,03,32,0.00
2008,12,25,03,33,0.00
2008,12,25,03,34,0.00
2008,12,25,03,35,0.00
2008,12,25,03,36,0.00
2008,12,25,03,37,0.00
2008,12,25,03,38,0.00
2008,12,25,03,39,0.00
2008,12,25,03,40,0.00
2008,12,25,03,41,0.00
2008,12,25,03,42,0.00
2008,12,25,03,43,0.00
2008,12,25,03,44,0.00
2008,12,25,03,45,0.00
2008,12,25,03,46,0.00
2008,12,25,03,47,0.00
2008,12,25,03,48,0.00
2008,12,25,03,49,0.00
2008,12,25,03,50,0.00
2008,12,25,03,51,0.00
2008,12,25,03,52,0.00
2008,12,25,03,53,0.00
2008,12,25,03,54,0.00
2008,12,25,03,55,0.00
2008,12,25,03,56,0.00
2008,12,25,03,57,0.00
2008,12,25,03,58,0.00
2008,12,25,03,59,0.00
2008,12,25,04,00,0.00
2008,12,25,04,01,0.00
2008,12,25,04,02,0.00
2008,12,25,04,03,0.00
2008,12,25,04,04,0.00
2008,12,25,04,05,0.00
2008,12,25,04,06,0.00
2008,12,25,04,07,0.00
2008,12,25,04,08,0.00
2008,12,25,04,09,0.00
2008,12,25,04,10,0.00
2008,12,25,04,11,0.00
2008,12,25,04,12,0.00
2008,12,25,04,13,0.00
2008,12,25,04,14,0.00
2008,12,25,04,15,0.00
2008,12,25,04,16,0.00
2008,12,25,04,17,0.00
2008,12,25,04,18,0.00
2008,12,25,04,19,0.00
2008,12,25,04,20,0.00
2008,12,25,04,21,0.00
2008,12,25,04,22,0.00
2008,12,25,04,23,0.00
2008,12,25,04,24,0.00
2008,12,25,04,25,0.00
2008,12,25,04,26,0.00
2008,12,25,04,27,0.00
2008,12,25,04,28,0.00
2008,12,25,04,29,0.00
2008,12,25,04,30,0.00
2008,12,25,04,31,0.00
2008,12,25,04,32,0.00
2008,12,25,04,33,0.00
2008,12,25,04,34,0.00
2008,12,25,04,35,0.00
2008,12,25,04,36,0.00
2008,12,25,04,37,0.00
2008,12,25,04,38,0.00
2008,12,25,04,39,0.00
2008,12,25,04,40,0.00
2008,12,25,04,41,0.00
2008,12,25,04,42,0.00
2008,12,25,04,43,0.00
2008,12,25,04,44,0.00
2008,12,25,04,45,0.00
2008,12,25,04,46,0.00
2008,12,25,04,47,0.00
2008,12,25,04,48,0.00
2008,12,25,04,49,0.00
2008,12,25,04,50,0.00
2008,12,25,04,51,0.00
2008,12,25,04,52,0.00
2008,12,25,04,53,0.00
2008,12,25,04,54,0.00
2008,12,25,04,55,0.00
2008,12,25,04,56,0.00
2008,12,25,04,57,0.00
2008,12,25,04,58,0.00
2008,12,25,04,59,0.00
2008,12,25,05,00,0.00
2008,12,25,05,01,0.00
2008,12,25,05,02,0.00
2008,12,25,05,03,0.00
2008,12,25,05,04,0.00
2008,12,25,05,05,0.00
2008,12,25,05,06,0.00
2008,12,25,05,07,0.00
2008,12,25,05,08,0.00
2008,12,25,05,09,0.00
2008,12,25,05,10,0.00
2008,12,25,05,11,0.00
2008,12,25,05,12,0.00
2008,12,25,05,13,0.00
2008,12,25,05,14,0.00
2008,12,25,05,15,0.00
2008,12,25,05,16,0.00
2008,12,25,05,17,0.00
2008,12,25,05,18,0.00
2008,12,25,05,19,0.00
2008,12,25,05,20,0.00
2008,12,25,05,21,0.00
2008,12,25,05,22,0.00
2008,12,25,05,23,0.00
2008,12,25,05,24,0.00
2008,12,25,05,25,0.00
2008,12,25,05,26,0.00
2008,12,25,05,27,0.00
2008,12,25,05,28,0.00
2008,12,25,05,29,0.00
2008,12,25,05,30,0.00
2008,12,25,05,31,0.00
2008,12,25,05,32,0.00
2008,12,25,05,33,0.00
2008,12,25,05,34,0.00
2008,12,25,05,35,0.00
2008,12,25,05,36,0.00
2008,12,25,05,37,0.00
2008,12,25,05,38,0.00
2008,12,25,05,39,0.00
2008,12,25,05,40,0.00
2008,12,25,05,41,0.00
2008,12,25,05,42,0.00
2008,12,25,05,43,0.00
2008,12,25,05,44,0.00
2008,12,25,05,45,0.00
2008,12,25,05,46,0.00
2008,12,25,05,47,0.00
2008,12,25,05,48,0.00
2008,12,25,05,49,0.00
2008,12,25,05,50,0.00
2008,12,25,05,51,0.00
2008,12,25,05,52,0.00
2008,12,25,05,53,0.00
2008,12,25,05,54,0.00
2008,12,25,05,55,0.00
2008,12,25,05,56,0.00
2008,12,25,05,57,0.00
2008,12,25,05,58,0.00
2008,12,25,05,59,0.00
2008,12,25,06,00,0.00
2008,12,25,06,01,0.00
2008,12,25,06,02,0.00
2008,12,25,06,03,0.00
2008,12,25,06,04,0.00
2008,12,25,06,05,0.00
2008,12,25,06,06,0.00
2008,12,25,06,07,0.00
2008,12,25,06,08,0.00
2008,12,25,06,09,0.00
2008,12,25,06,10,0.00
2008,12,25,06,11,0.00
2008,12,25,06,12,0.00
2008,12,25,06,13,0.00
2008,12,25,06,14,0.00
2008,12,25,06,15,0.00
2008,12,25,06,16,0.00
2008,12,25,06,17,0.00
2008,12,25,06,18,0.00
2008,12,25,06,19,0.00
2008,12,25,06,20,0.00
2008,12,25,06,21,0.00
2008,12,25,06,22,0.00
2008,12,25,06,23,0.00
2008,12,25,06,24,0.00
2008,12,25,06,25,0.00
2008,12,25,06,26,0.00
2008,12,25,06,27,0.00
2008,12,25,06,28,0.00
2008,12,25,06,29,0.00
2008,12,25,06,30,0.00
2008,12,25,06,31,0.00
2008,12,25,06,32,0.00
2008,12,25,06,33,0.00
2008,12,25,06,34,0.00
2008,12,25,06,35,0.00
2008,12,25,06,36,0.00
2008,12,25,06,37,0.00
2008,12,25,06,38,0.00
2008,12,25,06,39,0.00
2008,12,25,06,40,0.00
2008,12,25,06,41,0.00
2008,12,25,06,42,0.00
2008,12,25,06,43,0.00
2008,12,25,06,44,0.00
2008,12,25,06,45,0.00
2008,12,25,06,46,0.00
2008,12,25,06,47,0.00
2008,12,25,06,48,0.00
2008,12,25,06,49,0.00
2008,12,25,06,50,0.00
2008,12,25,06,51,0.00
2008,12,25,06,52,0.00
2008,12,25,06,53,0.00
2008,12,25,06,54,0.00
2008,12,25,06,55,0.00
2008,12,25,06,56,0.00
2008,12,25,06,57,0.00
2008,12,25,06,58,0.00
2008,12,25,06,59,0.00
2008,12,25,07,00,0.00
2008,12,25,07,01,0.00
2008,12,25,07,02,0.00
2008,12,25,07,03,0.00
2008,12,25,07,04,0.00
2008,12,25,07,05,0.00
2008,12,25,07,06,0.00
2008,12,25,07,07,0.00
2008,12,25,07,08,0.00
2008,12,25,07,09,0.00
2008,12,25,07,10,0.00
2008,12,25,07,11,0.00
2008,12,25,07,12,0.00
2008,12,25,07,13,0.00
2008,12,25,07,14,0.00
2008,12,25,07,15,0.00
2008,12,25,07,16,0.00
2008,12,25,07,17,0.00
2008,12,25,07,18,0.00
2008,12,25,07,19,0.00
2008,12,25,07,20,0.00
2008,12,25,07,21,0.00
2008,12,25,07,22,0.00
2008,12,25,07,23,0.00
2008,12,25,07,24,0.00
2008,12,25,07,25,0.00
2008,12,25,07,26,0.00
2008,12,25,07,27,0.00
2008,12,25,07,28,0.00
2008,12,25,07,29,0.00
2008,12,25,07,30,0.00
2008,12,25,07,31,0.00
2008,12,25,07,32,0.00
2008,12,25,07,33,0.00
2008,12,25,07,34,0.00
2008,12,25,07,35,0.00
2008,12,25,07,36,0.00
2008,12,25,07,37,0.00
2008,12,25,07,38,0.00
2008,12,25,07,39,0.00
2008,12,25,07,40,0.00
2008,12,25,07,41,0.00
2008,12,25,07,42,0.00
2008,12,25,07,43,0.00
2008,12,25,07,44,0.00
2008,12,25,07,45,0.00
2008,12,25,07,46,0.00
2008,12,25,07,47,0.00
2008,12,25,07,48,0.00
2008,12,25,07,49,0.00
2008,12,25,07,50,0.00
2008,12,25,07,51,0.00
2008,12,25,07,52,0.00
2008,12,25,07,53,0.00
2008,12,25,07,54,0.00
2008,12,25,07,55,0.00
2008,12,25,07,56,0.00
2008,12,25,07,57,0.00
2008,12,25,07,58,0.00
2008,12,25,07,59,0.00
2008,12,25,08,00,0.00
2008,12,25,08,01,0.00
2008,12,25,08,02,0.00
2008,12,25,08,03,0.00
2008,12,25,08,04,0.00
2008,12,25,08,05,0.00
2008,12,25,08,06,0.00
2008,12,25,08,07,0.00
2008,12,25,08,08,0.00
2008,12,25,08,09,0.00
2008,12,25,08,10,0.00
2008,12,25,08,11,0.00
2008,12,25,08,12,0.00
2008,12,25,08,13,0.00
2008,12,25,08,14,0.00
2008,12,25,08,15,0.00
2008,12,25,08,16,0.00
2008,12,25,08,17,0.00
2008,12,25,08,18,0.00
2008,12,25,08,19,0.00
2008,12,25,08,20,0.00
2008,12,25,08,21,0.00
2008,12,25,08,22,0.00
2008,12,25,08,23,0.00
2008,12,25,08,24,0.00
2008,12,25,08,25,0.00
2008,12,25,08,26,0.00
2008,12,25,08,27,0.00
2008,12,25,08,28,0.00
2008,12,25,08,29,0.00
2008,12,25,08,30,0.00
2008,12,25,08,31,0.00
2008,12,25,08,32,0.00
2008,12,25,08,33,0.00
2008,12,25,08,34,0.00
2008,12,25,08,35,0.00
2008,12,25,08,36,0.00
2008,12,25,08,37,0.00
2008,12,25,08,38,0.00
2008,12,25,08,39,0.00
2008,12,25,08,40,0.00
2008,12,25,08,41,0.00
2008,12,25,08,42,0.00
2008,12,25,08,43,0.00
2008,12,25,08,44,0.00
2008,12,25,08,45,0.00
2008,12,25,08,46,0.00
2008,12,25,08,47,0.00
2008,12,25,08,48,0.00
2008,12,25,08,49,0.00
2008,12,25,08,50,0.00
2008,12,25,08,51,0.00
2008,12,25,08,52,0.00
2008,12,25,08,53,0.00
2008,12,25,08,54,0.00
2008,12,25,08,55,0.00
2008,12,25,08,56,0.00
2008,12,25,08,57,0.00
2008,12,25,08,58,0.00
2008,12,25,08,59,0.00
2008,12,25,09,00,0.00
2008,12,25,09,01,0.00
2008,12,25,09,02,0.00
2008,12,25,09,03,0.00
2008,12,25,09,04,0.00
2008,12,25,09,05,0.00
2008,12,25,09,06,0.00
2008,12,25,09,07,0.00
2008,12,25,09,08,0.00
2008,12,25,09,09,0.00
2008,12,25,09,10,0.00
2008,12,25,09,11,0.00
2008,12,25,09,12,0.00
2008,12,25,09,13,0.00
2008,12,25,09,14,0.00
2008,12,25,09,15,0.00
2008,12,25,09,16,0.00
2008,12,25,09,17,2.60
2008,12,25,09,18,5.00
2008,12,25,09,19,5.00
2008,12,25,09,20,5.00
2008,12,25,09,21,5.00
2008,12,25,09,22,5.00
2008,12,25,09,23,5.00
2008,12,25,09,24,5.00
2008,12,25,09,25,5.00
2008,12,25,09,26,5.00
2008,12,25,09,27,5.00
2008,12,25,09,28,5.00
2008,12,25,09,29,5.00
2008,12,25,09,30,5.00
2008,12,25,09,31,5.00
2008,12,25,09,32,5.00
2008,12,25,09,33,5.00
2008,12,25,09,34,5.00
2008,12,25,09,35,5.00
2008,12,25,09,36,5.00
2008,12,25,09,37,5.00
2008,12,25,09,38,5.00
2008,12,25,09,39,5.00
2008,12,25,09,40,5.00
2008,12,25,09,41,6.10
2008,12,25,09,42,7.00
2008,12,25,09,43,7.00
2008,12,25,09,44,7.00
2008,12,25,09,45,7.00
2008,12,25,09,46,7.00
2008,12,25,09,47,7.00
2008,12,25,09,48,7.00
2008,12,25,09,49,7.00
2008,12,25,09,50,7.00
2008,12,25,09,51,7.00
2008,12,25,09,52,7.00
2008,12,25,09,53,7.00
2008,12,25,09,54,7.00
2008,12,25,09,55,7.00
2008,12,25,09,56,8.10
2008,12,25,09,57,9.00
2008,12,25,09,58,10.20
2008,12,25,09,59,13.80
2008,12,25,10,00,16.00
2008,12,25,10,01,13.40
2008,12,25,10,02,10.00
2008,12,25,10,03,9.00
2008,12,25,10,04,9.00
2008,12,25,10,05,10.10
2008,12,25,10,06,9.90
2008,12,25,10,07,9.00
2008,12,25,10,08,9.00
2008,12,25,10,09,7.90
2008,12,25,10,10,7.00
2008,12,25,10,11,7.00
2008,12,25,10,12,7.00
2008,12,25,10,13,7.00
2008,12,25,10,14,7.00
2008,12,25,10,15,7.00
2008,12,25,10,16,7.00
2008,12,25,10,17,7.00
2008,12,25,10,18,7.00
2008,12,25,10,19,7.00
2008,12,25,10,20,8.10
2008,12,25,10,21,9.00
2008,12,25,10,22,9.00
2008,12,25,10,23,9.00
2008,12,25,10,24,9.00
2008,12,25,10,25,10.10
2008,12,25,10,26,11.00
2008,12,25,10,27,11.00
2008,12,25,10,28,11.00
2008,12,25,10,29,11.00
2008,12,25,10,30,11.00
2008,12,25,10,31,11.00
2008,12,25,10,32,11.00
2008,12,25,10,33,11.00
2008,12,25,10,34,11.60
2008,12,25,10,35,20.90
2008,12,25,10,36,31.90
2008,12,25,10,37,35.00
2008,12,25,10,38,36.10
2008,12,25,10,39,37.00
2008,12,25,10,40,37.00
2008,12,25,10,41,38.10
2008,12,25,10,42,39.60
2008,12,25,10,43,41.10
2008,12,25,10,44,40.90
2008,12,25,10,45,38.30
2008,12,25,10,46,42.00
2008,12,25,10,47,46.60
2008,12,25,10,48,45.30
2008,12,25,10,49,37.30
2008,12,25,10,50,35.70
2008,12,25,10,51,36.80
2008,12,25,10,52,35.00
2008,12,25,10,53,38.20
2008,12,25,10,54,35.00
2008,12,25,10,55,26.90
2008,12,25,10,56,25.40
2008,12,25,10,57,23.90
2008,12,25,10,58,23.00
2008,12,25,10,59,23.00
2008,12,25,11,00,23.00
2008,12,25,11,01,28.00
2008,12,25,11,02,37.60
2008,12,25,11,03,38.10
2008,12,25,11,04,31.10
2008,12,25,11,05,21.30
2008,12,25,11,06,16.00
2008,12,25,11,07,14.90
2008,12,25,11,08,14.00
2008,12,25,11,09,14.00
2008,12,25,11,10,14.00
2008,12,25,11,11,17.90
2008,12,25,11,12,34.90
2008,12,25,11,13,47.70
2008,12,25,11,14,47.90
2008,12,25,11,15,46.50
2008,12,25,11,16,42.70
2008,12,25,11,17,35.80
2008,12,25,11,18,30.00
2008,12,25,11,19,33.00
2008,12,25,11,20,44.40
2008,12,25,11,21,52.10
2008,12,25,11,22,45.80
2008,12,25,11,23,33.60
2008,12,25,11,24,21.30
2008,12,25,11,25,14.90
2008,12,25,11,26,14.00
2008,12,25,11,27,14.00
2008,12,25,11,28,15.10
2008,12,25,11,29,17.10
2008,12,25,11,30,35.20
2008,12,25,11,31,50.10
2008,12,25,11,32,48.80
2008,12,25,11,33,52.00
2008,12,25,11,34,33.80
2008,12,25,11,35,25.40
2008,12,25,11,36,46.20
2008,12,25,11,37,57.00
2008,12,25,11,38,56.00
2008,12,25,11,39,57.10
2008,12,25,11,40,58.00
2008,12,25,11,41,58.00
2008,12,25,11,42,59.10
2008,12,25,11,43,60.00
2008,12,25,11,44,61.10
2008,12,25,11,45,62.00
2008,12,25,11,46,62.00
2008,12,25,11,47,62.50
2008,12,25,11,48,63.00
2008,12,25,11,49,62.40
2008,12,25,11,50,62.60
2008,12,25,11,51,63.00
2008,12,25,11,52,63.00
2008,12,25,11,53,64.10
2008,12,25,11,54,65.00
2008,12,25,11,55,65.00
2008,12,25,11,56,65.00
2008,12,25,11,57,66.10
2008,12,25,11,58,68.10
2008,12,25,11,59,67.90
2008,12,25,12,00,68.10
2008,12,25,12,01,69.00
2008,12,25,12,02,69.00
2008,12,25,12,03,69.60
2008,12,25,12,04,70.00
2008,12,25,12,05,70.00
2008,12,25,12,06,71.10
2008,12,25,12,07,72.00
2008,12,25,12,08,72.00
2008,12,25,12,09,72.00
2008,12,25,12,10,73.10
2008,12,25,12,11,72.90
2008,12,25,12,12,73.10
2008,12,25,12,13,74.00
2008,12,25,12,14,74.00
2008,12,25,12,15,75.10
2008,12,25,12,16,76.00
2008,12,25,12,17,76.00
2008,12,25,12,18,76.00
2008,12,25,12,19,76.00
2008,12,25,12,20,76.00
2008,12,25,12,21,76.60
2008,12,25,12,22,77.00
2008,12,25,12,23,77.00
2008,12,25,12,24,78.00
2008,12,25,12,25,79.00
2008,12,25,12,26,79.00
2008,12,25,12,27,80.10
2008,12,25,12,28,81.00
2008,12,25,12,29,82.10
2008,12,25,12,30,83.50
2008,12,25,12,31,85.00
2008,12,25,12,32,88.00
2008,12,25,12,33,90.00
2008,12,25,12,34,92.50
2008,12,25,12,35,99.50
2008,12,25,12,36,106.40
2008,12,25,12,37,110.00
2008,12,25,12,38,112.50
2008,12,25,12,39,115.00
2008,12,25,12,40,117.00
2008,12,25,12,41,120.50
2008,12,25,12,42,126.50
2008,12,25,12,43,133.50
2008,12,25,12,44,139.00
2008,12,25,12,45,144.50
2008,12,25,12,46,148.50
2008,12,25,12,47,152.00
2008,12,25,12,48,156.50
2008,12,25,12,49,160.40
2008,12,25,12,50,167.50
2008,12,25,12,51,178.50
2008,12,25,12,52,187.50
2008,12,25,12,53,195.60
2008,12,25,12,54,206.90
2008,12,25,12,55,219.00
2008,12,25,12,56,230.00
2008,12,25,12,57,236.60
2008,12,25,12,58,245.00
2008,12,25,12,59,254.30
2008,12,25,13,00,260.90
2008,12,25,13,01,269.60
2008,12,25,13,02,277.90
2008,12,25,13,03,281.00
2008,12,25,13,04,289.10
2008,12,25,13,05,303.80
2008,12,25,13,06,310.50
2008,12,25,13,07,318.00
2008,12,25,13,08,326.40
2008,12,25,13,09,334.40
2008,12,25,13,10,341.70
2008,12,25,13,11,347.80
2008,12,25,13,12,355.00
2008,12,25,13,13,365.70
2008,12,25,13,14,378.80
2008,12,25,13,15,388.90
2008,12,25,13,16,394.20
2008,12,25,13,17,401.60
2008,12,25,13,18,408.60
2008,12,25,13,19,412.10
2008,12,25,13,20,415.80
2008,12,25,13,21,419.10
2008,12,25,13,22,420.00
2008,12,25,13,23,421.10
2008,12,25,13,24,423.70
2008,12,25,13,25,427.20
2008,12,25,13,26,430.70
2008,12,25,13,27,433.10
2008,12,25,13,28,434.00
2008,12,25,13,29,436.80
2008,12,25,13,30,441.20
2008,12,25,13,31,444.70
2008,12,25,13,32,449.30
2008,12,25,13,33,454.80
2008,12,25,13,34,459.20
2008,12,25,13,35,459.90
2008,12,25,13,36,460.70
2008,12,25,13,37,465.30
2008,12,25,13,38,469.70
2008,12,25,13,39,471.00
2008,12,25,13,40,442.70
2008,12,25,13,41,420.00
2008,12,25,13,42,420.00
2008,12,25,13,43,420.00
2008,12,25,13,44,420.00
2008,12,25,13,45,420.00
2008,12,25,13,46,454.40
2008,12,25,13,47,478.70
2008,12,25,13,48,474.30
2008,12,25,13,49,473.00
2008,12,25,13,50,474.70
2008,12,25,13,51,477.10
2008,12,25,13,52,478.00
2008,12,25,13,53,476.90
2008,12,25,13,54,478.20
2008,12,25,13,55,478.90
2008,12,25,13,56,462.40
2008,12,25,13,57,450.00
2008,12,25,13,58,466.70
2008,12,25,13,59,481.10
2008,12,25,14,00,482.00
2008,12,25,14,01,482.60
2008,12,25,14,02,483.00
2008,12,25,14,03,482.40
2008,12,25,14,04,482.00
2008,12,25,14,05,482.00
2008,12,25,14,06,479.80
2008,12,25,14,07,478.00
2008,12,25,14,08,477.00
2008,12,25,14,09,476.00
2008,12,25,14,10,477.10
2008,12,25,14,11,476.90
2008,12,25,14,12,474.30
2008,12,25,14,13,470.80
2008,12,25,14,14,469.00
2008,12,25,14,15,470.00
2008,12,25,14,16,469.90
2008,12,25,14,17,469.00
2008,12,25,14,18,467.50
2008,12,25,14,19,466.00
2008,12,25,14,20,463.80
2008,12,25,14,21,464.20
2008,12,25,14,22,463.80
2008,12,25,14,23,463.10
2008,12,25,14,24,464.00
2008,12,25,14,25,464.00
2008,12,25,14,26,464.00
2008,12,25,14,27,462.30
2008,12,25,14,28,461.00
2008,12,25,14,29,461.00
2008,12,25,14,30,270.90
2008,12,25,14,31,94.40
2008,12,25,14,32,81.20
2008,12,25,14,33,74.80
2008,12,25,14,34,69.60
2008,12,25,14,35,68.10
2008,12,25,14,36,65.80
2008,12,25,14,37,63.00
2008,12,25,14,38,65.20
2008,12,25,14,39,83.40
2008,12,25,14,40,98.00
2008,12,25,14,41,98.00
2008,12,25,14,42,249.50
2008,12,25,14,43,404.90
2008,12,25,14,44,408.00
2008,12,25,14,45,407.00
2008,12,25,14,46,404.90
2008,12,25,14,47,403.50
2008,12,25,14,48,401.10
2008,12,25,14,49,396.40
2008,12,25,14,50,393.00
2008,12,25,14,51,392.00
2008,12,25,14,52,384.40
2008,12,25,14,53,342.10
2008,12,25,14,54,273.90
2008,12,25,14,55,241.00
2008,12,25,14,56,241.00
2008,12,25,14,57,143.20
2008,12,25,14,58,65.00
2008,12,25,14,59,66.10
2008,12,25,15,00,64.80
2008,12,25,15,01,61.30
2008,12,25,15,02,58.90
2008,12,25,15,03,56.90
2008,12,25,15,04,55.00
2008,12,25,15,05,54.00
2008,12,25,15,06,66.20
2008,12,25,15,07,62.80
2008,12,25,15,08,51.00
2008,12,25,15,09,48.90
2008,12,25,15,10,47.90
2008,12,25,15,11,53.30
2008,12,25,15,12,53.00
2008,12,25,15,13,51.20
2008,12,25,15,14,49.80
2008,12,25,15,15,46.50
2008,12,25,15,16,44.90
2008,12,25,15,17,43.10
2008,12,25,15,18,42.00
2008,12,25,15,19,40.90
2008,12,25,15,20,39.40
2008,12,25,15,21,36.90
2008,12,25,15,22,34.00
2008,12,25,15,23,32.50
2008,12,25,15,24,31.00
2008,12,25,15,25,28.90
2008,12,25,15,26,28.00
2008,12,25,15,27,28.00
2008,12,25,15,28,26.90
2008,12,25,15,29,26.00
2008,12,25,15,30,25.50
2008,12,25,15,31,24.00
2008,12,25,15,32,21.90
2008,12,25,15,33,20.00
2008,12,25,15,34,18.40
2008,12,25,15,35,16.90
2008,12,25,15,36,16.00
2008,12,25,15,37,14.90
2008,12,25,15,38,14.00
2008,12,25,15,39,14.00
2008,12,25,15,40,13.10
2008,12,25,15,41,12.00
2008,12,25,15,42,12.00
2008,12,25,15,43,12.00
2008,12,25,15,44,12.00
2008,12,25,15,45,12.00
2008,12,25,15,46,12.00
2008,12,25,15,47,11.50
2008,12,25,15,48,11.00
2008,12,25,15,49,11.00
2008,12,25,15,50,11.00
2008,12,25,15,51,11.00
2008,12,25,15,52,11.00
2008,12,25,15,53,11.00
2008,12,25,15,54,11.00
2008,12,25,15,55,11.00
2008,12,25,15,56,11.00
2008,12,25,15,57,11.00
2008,12,25,15,58,10.10
2008,12,25,15,59,9.00
2008,12,25,16,00,8.10
2008,12,25,16,01,7.00
2008,12,25,16,02,7.00
2008,12,25,16,03,7.00
2008,12,25,16,04,5.90
2008,12,25,16,05,5.00
2008,12,25,16,06,5.00
2008,12,25,16,07,5.00
2008,12,25,16,08,5.00
2008,12,25,16,09,5.00
2008,12,25,16,10,5.00
2008,12,25,16,11,5.00
2008,12,25,16,12,5.00
2008,12,25,16,13,5.00
2008,12,25,16,14,5.00
2008,12,25,16,15,5.00
2008,12,25,16,16,2.80
2008,12,25,16,17,0.00
2008,12,25,16,18,0.00
2008,12,25,16,19,0.00
2008,12,25,16,20,0.00
2008,12,25,16,21,0.00
2008,12,25,16,22,0.00
2008,12,25,16,23,0.00
2008,12,25,16,24,0.00
2008,12,25,16,25,0.00
2008,12,25,16,26,0.00
2008,12,25,16,27,0.00
2008,12,25,16,28,0.00
2008,12,25,16,29,0.00
2008,12,25,16,30,0.00
2008,12,25,16,31,0.00
2008,12,25,16,32,0.00
2008,12,25,16,33,0.00
2008,12,25,16,34,0.00
2008,12,25,16,35,0.00
2008,12,25,16,36,0.00
2008,12,25,16,37,0.00
2008,12,25,16,38,0.00
2008,12,25,16,39,0.00
2008,12,25,16,40,0.00
2008,12,25,16,41,0.00
2008,12,25,16,42,0.00
2008,12,25,16,43,0.00
2008,12,25,16,44,0.00
2008,12,25,16,45,0.00
2008,12,25,16,46,0.00
2008,12,25,16,47,0.00
2008,12,25,16,48,0.00
2008,12,25,16,49,0.00
2008,12,25,16,50,0.00
2008,12,25,16,51,0.00
2008,12,25,16,52,0.00
2008,12,25,16,53,0.00
2008,12,25,16,54,0.00
2008,12,25,16,55,0.00
2008,12,25,16,56,0.00
2008,12,25,16,57,0.00
2008,12,25,16,58,0.00
2008,12,25,16,59,0.00
2008,12,25,17,00,0.00
2008,12,25,17,01,0.00
2008,12,25,17,02,0.00
2008,12,25,17,03,0.00
2008,12,25,17,04,0.00
2008,12,25,17,05,0.00
2008,12,25,17,06,0.00
2008,12,25,17,07,0.00
2008,12,25,17,08,0.00
2008,12,25,17,09,0.00
2008,12,25,17,10,0.00
2008,12,25,17,11,0.00
2008,12,25,17,12,0.00
2008,12,25,17,13,0.00
2008,12,25,17,14,0.00
2008,12,25,17,15,0.00
2008,12,25,17,16,0.00
2008,12,25,17,17,0.00
2008,12,25,17,18,0.00
2008,12,25,17,19,0.00
2008,12,25,17,20,0.00
2008,12,25,17,21,0.00
2008,12,25,17,22,0.00
2008,12,25,17,23,0.00
2008,12,25,17,24,0.00
2008,12,25,17,25,0.00
2008,12,25,17,26,0.00
2008,12,25,17,27,0.00
2008,12,25,17,28,0.00
2008,12,25,17,29,0.00
2008,12,25,17,30,0.00
2008,12,25,17,31,0.00
2008,12,25,17,32,0.00
2008,12,25,17,33,0.00
2008,12,25,17,34,0.00
2008,12,25,17,35,0.00
2008,12,25,17,36,0.00
2008,12,25,17,37,0.00
2008,12,25,17,38,0.00
2008,12,25,17,39,0.00
2008,12,25,17,40,0.00
2008,12,25,17,41,0.00
2008,12,25,17,42,0.00
2008,12,25,17,43,0.00
2008,12,25,17,44,0.00
2008,12,25,17,45,0.00
2008,12,25,17,46,0.00
2008,12,25,17,47,0.00
2008,12,25,17,48,0.00
2008,12,25,17,49,0.00
2008,12,25,17,50,0.00
2008,12,25,17,51,0.00
2008,12,25,17,52,0.00
2008,12,25,17,53,0.00
2008,12,25,17,54,0.00
2008,12,25,17,55,0.00
2008,12,25,17,56,0.00
2008,12,25,17,57,0.00
2008,12,25,17,58,0.00
2008,12,25,17,59,0.00
2008,12,25,18,00,0.00
2008,12,25,18,01,0.00
2008,12,25,18,02,0.00